| time (UTC) | temp F | wind direction | speed MPH | gust MPH | rain 1hr in | rain 24hr in | rain mn in | humidity % | barometer mb |
| 20260506153021 | 61 | 270 | 11.0 | 19.0 | 0.00 | 0.00 | 0.00 | 63 | 1014.7 |
| 20260506151519 | 60 | 269 | 11.0 | 19.0 | 0.00 | 0.00 | 0.00 | 64 | 1014.8 |
| 20260506150018 | 60 | 294 | 12.0 | 18.0 | 0.00 | 0.00 | 0.00 | 65 | 1014.9 |
| 20260506144523 | 59 | 290 | 8.0 | 16.0 | 0.00 | 0.00 | 0.00 | 66 | 1014.8 |
| 20260506143014 | 58 | 283 | 12.0 | 17.0 | 0.00 | 0.00 | 0.00 | 67 | 1014.5 |
| 20260506141525 | 57 | 276 | 9.0 | 14.0 | 0.00 | 0.00 | 0.00 | 70 | 1014.6 |
| 20260506140012 | 56 | 268 | 9.0 | 14.0 | 0.00 | 0.00 | 0.00 | 72 | 1014.4 |
| 20260506134509 | 0 | 0.0 | 0.0 | 0.00 | 0.00 | 0.00 | 1014.2 | ||
| 20260506133005 | 0 | 0.0 | 0.0 | 0.00 | 0.00 | 0.00 | 1014.1 | ||
| 20260506131501 | 0 | 0.0 | 0.0 | 0.00 | 0.00 | 0.00 | 1013.8 | ||
| 20260506130057 | 0 | 0.0 | 0.0 | 0.00 | 0.00 | 0.00 | 1013.7 | ||
| 20260506124553 | 0 | 0.0 | 0.0 | 0.00 | 0.00 | 0.00 | 1013.5 | ||
| 20260506123048 | 0 | 0.0 | 0.0 | 0.00 | 0.00 | 0.00 | 1013.4 | ||
| 20260506121553 | 55 | 293 | 10.0 | 14.0 | 0.00 | 0.00 | 0.00 | 78 | 1013.2 |
| 20260506120056 | 54 | 275 | 6.0 | 10.0 | 0.00 | 0.00 | 0.00 | 77 | 1013.2 |
| 20260506114538 | 55 | 280 | 8.0 | 12.0 | 0.00 | 0.00 | 0.00 | 76 | 1013.2 |
| 20260506113036 | 56 | 270 | 9.0 | 13.0 | 0.00 | 0.00 | 0.00 | 74 | 1013.1 |
| 20260506111536 | 56 | 277 | 7.0 | 13.0 | 0.00 | 0.00 | 0.00 | 72 | 1013.0 |
| 20260506110031 | 57 | 276 | 9.0 | 14.0 | 0.00 | 0.00 | 0.00 | 71 | 1012.9 |
| 20260506104538 | 57 | 281 | 8.0 | 14.0 | 0.00 | 0.00 | 0.00 | 72 | 1012.7 |
| 20260506103038 | 56 | 263 | 8.0 | 12.0 | 0.00 | 0.00 | 0.00 | 73 | 1012.6 |
| 20260506101522 | 56 | 250 | 6.0 | 10.0 | 0.00 | 0.00 | 0.00 | 74 | 1012.5 |
| 20260506100022 | 56 | 251 | 5.0 | 8.0 | 0.00 | 0.00 | 0.00 | 74 | 1012.6 |
| 20260506094519 | 57 | 281 | 7.0 | 11.0 | 0.00 | 0.00 | 0.00 | 73 | 1012.4 |
| 20260506093020 | 57 | 261 | 6.0 | 10.0 | 0.00 | 0.00 | 0.00 | 73 | 1012.3 |
| 20260506091517 | 57 | 271 | 6.0 | 11.0 | 0.00 | 0.00 | 0.00 | 73 | 1012.3 |
| 20260506090011 | 58 | 273 | 7.0 | 11.0 | 0.00 | 0.00 | 0.00 | 72 | 1012.2 |
| 20260506084514 | 58 | 280 | 8.0 | 13.0 | 0.00 | 0.00 | 0.00 | 71 | 1012.2 |
| 20260506083005 | 58 | 281 | 10.0 | 16.0 | 0.00 | 0.00 | 0.00 | 70 | 1012.2 |
| 20260506081503 | 59 | 264 | 9.0 | 14.0 | 0.00 | 0.00 | 0.00 | 69 | 1012.0 |
| 20260506080105 | 59 | 264 | 7.0 | 16.0 | 0.00 | 0.00 | 0.00 | 66 | 1012.0 |
| 20260506073053 | 60 | 267 | 8.0 | 13.0 | 0.00 | 0.00 | 0.00 | 63 | 1011.8 |
| 20260506071551 | 60 | 245 | 5.0 | 12.0 | 0.00 | 0.00 | 0.00 | 63 | 1011.8 |
| 20260506061533 | 61 | 276 | 5.0 | 9.0 | 0.00 | 0.00 | 0.00 | 64 | 1011.3 |
| 20260506044506 | 64 | 289 | 7.0 | 11.0 | 0.00 | 0.00 | 0.00 | 63 | 1010.9 |
| 20260506043003 | 64 | 285 | 6.0 | 10.0 | 0.00 | 0.00 | 0.00 | 61 | 1010.7 |
| 20260506041608 | 65 | 278 | 6.0 | 9.0 | 0.00 | 0.00 | 0.00 | 59 | 1010.5 |
| 20260506040054 | 65 | 287 | 4.0 | 7.0 | 0.00 | 0.00 | 0.00 | 60 | 1010.2 |
| 20260506034553 | 66 | 280 | 4.0 | 7.0 | 0.00 | 0.00 | 0.00 | 59 | 1010.1 |
| 20260506033043 | 68 | 288 | 2.0 | 5.0 | 0.00 | 0.00 | 0.00 | 57 | 1009.8 |
| 20260506031543 | 69 | 297 | 3.0 | 5.0 | 0.00 | 0.00 | 0.00 | 50 | 1009.7 |
| 20260506030039 | 72 | 13 | 2.0 | 5.0 | 0.00 | 0.00 | 0.00 | 46 | 1009.3 |
| 20260506024536 | 74 | 21 | 3.0 | 6.0 | 0.00 | 0.00 | 0.00 | 43 | 1009.1 |
| 20260506023047 | 75 | 23 | 2.0 | 6.0 | 0.00 | 0.00 | 0.00 | 41 | 1009.0 |
| 20260506021533 | 77 | 25 | 3.0 | 7.0 | 0.00 | 0.00 | 0.00 | 39 | 1008.9 |
| 20260506020022 | 78 | 28 | 4.0 | 10.0 | 0.00 | 0.00 | 0.00 | 37 | 1008.9 |
| 20260506014515 | 78 | 36 | 7.0 | 12.0 | 0.00 | 0.00 | 0.00 | 33 | 1008.8 |
| 20260506013010 | 80 | 32 | 6.0 | 10.0 | 0.00 | 0.00 | 0.00 | 30 | 1008.7 |
| 20260506011506 | 80 | 43 | 4.0 | 10.0 | 0.00 | 0.00 | 0.00 | 29 | 1008.7 |
| 20260506004556 | 81 | 41 | 6.0 | 12.0 | 0.00 | 0.17 | 0.00 | 31 | 1008.6 |
| 20260506003054 | 81 | 347 | 5.0 | 9.0 | 0.00 | 0.17 | 0.00 | 30 | 1008.6 |
| 20260506001552 | 81 | 43 | 5.0 | 11.0 | 0.00 | 0.17 | 0.00 | 29 | 1008.6 |
| 20260506000048 | 81 | 29 | 5.0 | 10.0 | 0.00 | 0.17 | 0.00 | 30 | 1008.7 |
| 20260505234538 | 81 | 9 | 2.0 | 9.0 | 0.00 | 0.17 | 0.00 | 32 | 1008.7 |
| 20260505233035 | 81 | 123 | 3.0 | 6.0 | 0.00 | 0.17 | 0.00 | 29 | 1008.8 |
| 20260505231545 | 81 | 98 | 3.0 | 8.0 | 0.00 | 0.17 | 0.00 | 28 | 1008.9 |
| 20260505230027 | 81 | 11 | 2.0 | 9.0 | 0.00 | 0.17 | 0.00 | 28 | 1008.9 |
| 20260505224520 | 81 | 84 | 5.0 | 10.0 | 0.00 | 0.17 | 0.00 | 27 | 1009.0 |
| 20260505223015 | 80 | 91 | 7.0 | 14.0 | 0.00 | 0.17 | 0.00 | 27 | 1009.2 |
| 20260505221512 | 80 | 37 | 7.0 | 11.0 | 0.00 | 0.17 | 0.00 | 31 | 1009.3 |
| 20260505220107 | 79 | 59 | 6.0 | 12.0 | 0.00 | 0.17 | 0.00 | 33 | 1009.4 |
| 20260505214502 | 79 | 77 | 4.0 | 10.0 | 0.00 | 0.17 | 0.00 | 32 | 1009.5 |
| 20260505213058 | 79 | 65 | 5.0 | 12.0 | 0.00 | 0.17 | 0.00 | 33 | 1009.6 |
| 20260505211554 | 79 | 19 | 8.0 | 13.0 | 0.00 | 0.17 | 0.00 | 34 | 1009.7 |
| 20260505210050 | 78 | 35 | 6.0 | 14.0 | 0.00 | 0.17 | 0.00 | 36 | 1009.7 |
| 20260505204544 | 78 | 13 | 3.0 | 8.0 | 0.00 | 0.17 | 0.00 | 36 | 1009.8 |
| 20260505203056 | 77 | 18 | 2.0 | 12.0 | 0.00 | 0.17 | 0.00 | 40 | 1009.9 |
| 20260505201542 | 76 | 138 | 1.0 | 10.0 | 0.00 | 0.17 | 0.00 | 38 | 1010.0 |
| 20260505200032 | 76 | 138 | 4.0 | 7.0 | 0.00 | 0.17 | 0.00 | 39 | 1010.0 |
| 20260505194526 | 75 | 307 | 2.0 | 9.0 | 0.00 | 0.17 | 0.00 | 41 | 1010.1 |
| 20260505193030 | 75 | 153 | 2.0 | 6.0 | 0.00 | 0.17 | 0.00 | 40 | 1010.2 |
| 20260505191518 | 74 | 123 | 2.0 | 10.0 | 0.00 | 0.17 | 0.00 | 43 | 1010.3 |
| 20260505190017 | 73 | 6 | 0.0 | 10.0 | 0.00 | 0.17 | 0.00 | 46 | 1010.5 |
| 20260505184509 | 72 | 80 | 4.0 | 9.0 | 0.00 | 0.17 | 0.00 | 44 | 1010.5 |
| 20260505183011 | 72 | 332 | 4.0 | 9.0 | 0.00 | 0.17 | 0.00 | 44 | 1010.5 |
| 20260505181600 | 71 | 31 | 3.0 | 8.0 | 0.00 | 0.17 | 0.00 | 46 | 1010.5 |
| 20260505174550 | 71 | 319 | 1.0 | 4.0 | 0.00 | 0.17 | 0.00 | 46 | 1010.3 |
| 20260505173051 | 70 | 293 | 2.0 | 6.0 | 0.00 | 0.17 | 0.00 | 48 | 1010.3 |
| 20260505171546 | 69 | 326 | 0.0 | 5.0 | 0.00 | 0.17 | 0.00 | 48 | 1010.3 |
| 20260505170100 | 69 | 315 | 0.0 | 5.0 | 0.00 | 0.17 | 0.00 | 51 | 1010.2 |
| 20260505164533 | 67 | 281 | 4.0 | 8.0 | 0.00 | 0.17 | 0.00 | 52 | 1010.2 |
| 20260505163033 | 67 | 302 | 2.0 | 7.0 | 0.00 | 0.17 | 0.00 | 55 | 1010.2 |
| 20260505161524 | 66 | 315 | 5.0 | 8.0 | 0.00 | 0.17 | 0.00 | 57 | 1010.2 |